Le nostre stazioni meteo in Italia

Pubblicità
Il mio iltempo24.it
Durham, Gran Bretagna (99049): Temperatura & dewpoint: 04.04.2020 04:00:00 - 10.04.2020 04:00:00 (BST)Durham, Gran Bretagna (99049): Temperatura -20cm & Temperatura -100cm: 04.04.2020 04:00:00 - 10.04.2020 04:00:00 (BST)Durham, Gran Bretagna (99049): precipitazioni: 04.04.2020 04:00:00 - 10.04.2020 04:00:00 (BST)
Data & Tempo tt [°C] td [°C] tt -20cm [°C] tt -100cm [°C] rr [mm]
10.04.2020 04:00:00 6,7 5,6 - - -
10.04.2020 03:00:00 6,8 5,6 - - 0,0
10.04.2020 02:00:00 6,5 5,5 - - 0,0
10.04.2020 01:00:00 6,5 5,3 - - 0,0
10.04.2020 00:00:00 6,9 6,0 - - 0,0
09.04.2020 23:00:00 6,1 5,6 - - 0,0
09.04.2020 22:00:00 5,7 4,8 - - 0,0
09.04.2020 21:00:00 6,2 4,9 - - 0,0
09.04.2020 20:00:00 7,1 5,6 - - 0,0
09.04.2020 19:00:00 7,3 5,7 - - 0,0
09.04.2020 18:00:00 7,5 5,7 - - 0,0
09.04.2020 17:00:00 8,2 6,0 - - 0,0
09.04.2020 16:00:00 9,1 6,1 - - 0,0
09.04.2020 15:00:00 9,9 6,4 - - 0,0
09.04.2020 14:00:00 10,3 7,3 - - 0,0
09.04.2020 13:00:00 9,7 7,0 - - 0,0
09.04.2020 12:00:00 10,2 7,4 - - 0,0
09.04.2020 11:00:00 9,7 7,2 - - 0,0
09.04.2020 10:00:00 8,5 7,8 10,0 8,2 0,0
09.04.2020 09:00:00 7,1 6,8 - - 0,0
09.04.2020 08:00:00 6,8 6,4 - - 0,0
09.04.2020 07:00:00 6,5 6,1 - - 0,0
09.04.2020 06:00:00 6,5 6,0 - - 0,0
09.04.2020 05:00:00 6,7 6,1 - - 0,0
09.04.2020 04:00:00 6,8 6,0 - - 0,0
09.04.2020 03:00:00 7,1 6,1 - - 0,0
09.04.2020 02:00:00 6,9 5,6 - - 0,0
09.04.2020 01:00:00 8,4 4,5 - - 0,0
09.04.2020 00:00:00 9,2 4,3 - - 0,0
08.04.2020 23:00:00 9,9 4,7 - - 0,0
08.04.2020 22:00:00 10,8 5,2 - - 0,0
08.04.2020 21:00:00 11,4 5,2 - - 0,0
08.04.2020 20:00:00 12,9 5,3 - - 0,0
08.04.2020 19:00:00 15,6 5,8 - - 0,0
08.04.2020 18:00:00 17,2 6,1 - - 0,0
08.04.2020 17:00:00 17,7 6,8 - - 0,0
08.04.2020 16:00:00 17,6 6,3 - - 0,0
08.04.2020 15:00:00 17,4 5,6 - - 0,0
08.04.2020 14:00:00 17,6 6,0 - - 0,0
08.04.2020 13:00:00 16,7 5,3 - - 0,0
08.04.2020 12:00:00 16,4 4,4 - - 0,0
08.04.2020 11:00:00 14,5 4,4 - - 0,0
08.04.2020 10:00:00 10,8 3,6 9,5 8,0 0,0
08.04.2020 09:00:00 9,0 3,8 - - 0,0
08.04.2020 08:00:00 6,1 2,6 - - 0,0
08.04.2020 07:00:00 5,1 1,7 - - 0,0
08.04.2020 06:00:00 5,6 1,5 - - 0,0
08.04.2020 05:00:00 7,0 2,4 - - 0,0
08.04.2020 04:00:00 6,4 2,1 - - 0,0
08.04.2020 03:00:00 7,3 2,8 - - 0,0
08.04.2020 02:00:00 6,9 3,3 - - 0,0
08.04.2020 01:00:00 8,1 2,9 - - 0,0
08.04.2020 00:00:00 9,6 3,5 - - 0,0
07.04.2020 23:00:00 10,2 3,4 - - 0,0
07.04.2020 22:00:00 11,5 3,1 - - 0,0
07.04.2020 21:00:00 12,4 2,7 - - 0,0
07.04.2020 20:00:00 13,9 2,3 - - 0,0
07.04.2020 19:00:00 15,7 0,8 - - 0,0
07.04.2020 18:00:00 16,3 1,3 - - 0,0
07.04.2020 17:00:00 16,5 1,9 - - 0,0
07.04.2020 16:00:00 16,6 3,5 - - 0,0
07.04.2020 15:00:00 15,6 2,9 - - 0,0
07.04.2020 14:00:00 15,0 2,8 - - 0,0
07.04.2020 13:00:00 14,2 3,3 - - 0,0
07.04.2020 12:00:00 12,8 3,1 - - 0,0
07.04.2020 11:00:00 11,4 3,8 - - 0,0
07.04.2020 10:00:00 9,6 4,9 9,0 7,9 0,0
07.04.2020 09:00:00 7,9 4,9 - - 0,0
07.04.2020 08:00:00 6,0 4,2 - - 0,0
07.04.2020 07:00:00 4,2 3,1 - - 0,0
07.04.2020 06:00:00 4,3 3,1 - - 0,0
07.04.2020 05:00:00 5,0 3,3 - - 0,0
07.04.2020 04:00:00 5,3 2,6 - - 0,0
07.04.2020 03:00:00 5,8 2,9 - - 0,0
07.04.2020 02:00:00 5,8 2,7 - - 0,0
07.04.2020 01:00:00 6,2 2,7 - - 0,0
07.04.2020 00:00:00 6,4 3,0 - - 0,0
06.04.2020 23:00:00 6,6 2,7 - - 0,0
06.04.2020 22:00:00 7,2 2,7 - - 0,0
06.04.2020 21:00:00 9,0 3,0 - - 0,0
06.04.2020 20:00:00 10,6 1,4 - - 0,0
06.04.2020 19:00:00 12,0 0,3 - - 0,0
06.04.2020 18:00:00 12,8 0,9 - - 0,0
06.04.2020 17:00:00 13,6 1,5 - - 0,0
06.04.2020 16:00:00 13,5 0,2 - - 0,0
06.04.2020 15:00:00 14,0 0,6 - - 0,0
06.04.2020 14:00:00 13,3 0,6 - - 0,0
06.04.2020 13:00:00 13,5 0,8 - - 0,0
06.04.2020 12:00:00 12,7 4,8 - - 0,0
06.04.2020 11:00:00 11,5 5,4 - - 0,0
06.04.2020 10:00:00 11,2 5,8 8,9 7,7 0,0
06.04.2020 09:00:00 10,8 5,7 - - 0,0
06.04.2020 08:00:00 9,9 5,6 - - 0,0
06.04.2020 07:00:00 10,1 6,2 - - 0,0
06.04.2020 06:00:00 10,7 6,8 - - 0,0
06.04.2020 05:00:00 11,5 7,9 - - 0,0
06.04.2020 04:00:00 12,2 6,1 - - 0,0
06.04.2020 03:00:00 12,8 4,2 - - 0,0
06.04.2020 02:00:00 13,3 3,7 - - 0,0
06.04.2020 01:00:00 13,8 3,2 - - 0,0
06.04.2020 00:00:00 14,3 3,3 - - 0,0
05.04.2020 23:00:00 14,7 4,0 - - 0,0
05.04.2020 22:00:00 14,1 4,7 - - 0,0
05.04.2020 21:00:00 15,1 3,6 - - 0,0
05.04.2020 20:00:00 16,0 3,5 - - 0,0
05.04.2020 19:00:00 16,4 3,3 - - 0,0
05.04.2020 18:00:00 17,1 3,4 - - 0,0
05.04.2020 17:00:00 17,9 3,9 - - 0,0
05.04.2020 16:00:00 17,3 3,9 - - 0,0
05.04.2020 15:00:00 16,3 3,6 - - 0,0
05.04.2020 14:00:00 15,7 3,6 - - 0,0
05.04.2020 13:00:00 14,7 3,1 - - 0,0
05.04.2020 12:00:00 13,2 3,9 - - 0,0
05.04.2020 11:00:00 12,1 4,0 - - 0,0
05.04.2020 10:00:00 9,8 4,1 8,2 7,7 0,0
05.04.2020 09:00:00 7,6 3,4 - - 0,0
05.04.2020 08:00:00 5,8 2,7 - - 0,0
05.04.2020 07:00:00 4,8 2,0 - - 0,0
05.04.2020 06:00:00 4,9 2,2 - - 0,0
05.04.2020 05:00:00 5,7 2,6 - - 0,0
05.04.2020 04:00:00 6,2 2,8 - - 0,0
05.04.2020 03:00:00 6,9 3,3 - - 0,0
05.04.2020 02:00:00 7,3 3,8 - - 0,0
05.04.2020 01:00:00 8,2 4,6 - - 0,0
05.04.2020 00:00:00 8,6 4,7 - - 0,0
04.04.2020 23:00:00 9,5 5,0 - - 0,0
04.04.2020 22:00:00 9,3 4,7 - - 0,0
04.04.2020 21:00:00 10,3 4,7 - - 0,0
04.04.2020 20:00:00 10,4 4,4 - - 0,0
04.04.2020 19:00:00 10,7 3,7 - - 0,0
04.04.2020 18:00:00 10,8 2,9 - - 0,0
04.04.2020 17:00:00 11,3 1,7 - - 0,0
04.04.2020 16:00:00 10,9 2,2 - - 0,0
04.04.2020 15:00:00 11,9 2,8 - - 0,0
04.04.2020 14:00:00 11,1 2,3 - - 0,0
04.04.2020 13:00:00 11,3 2,6 - - 0,0
04.04.2020 12:00:00 10,6 3,2 - - 0,0
04.04.2020 11:00:00 10,7 3,8 - - 0,0
04.04.2020 10:00:00 9,4 3,8 8,0 7,7 0,0
04.04.2020 09:00:00 8,5 4,3 - - 0,0
04.04.2020 08:00:00 7,4 5,3 - - 0,0
04.04.2020 07:00:00 6,8 4,7 - - 0,0
04.04.2020 06:00:00 6,6 4,7 - - 0,0
04.04.2020 05:00:00 6,3 4,3 - - 0,0
04.04.2020 04:00:00 7,1 4,9 - - 0,0

tt = Temperatura
td = dewpoint
tt -20cm = Temperatura -20cm
tt -100cm = Temperatura -100cm
rr = precipitazioni

Stazioni seguenti

WeatherPro
AMSI
MeteoEarth